Preview of NWS' New Version of Forecast
This preview is not operational and should not be used for support decisions.
Latest weather observations around

Bakersfield, Meadows Field Airport (KBFL)

Using English Units (Switch to International System of Units)
Date/ Time (PDT) Wind (mph) Vis. (mi) Weather Sky Cond. Temp (°F) Rel. Humidity Wind Chill (°F) Heat Index (°F) Pressure Precip. (in)
Air Dwpt 6 hour Altimeter (inHg) Sea level (inHg) 1 hr 3 hr 6 hr
Max Min
Apr 22 21:54 Calm 10 Clear CLR 75 43     32%   74 29.9 29.88      
Apr 22 20:54 NNE 7 10 Clear CLR 76 43     31%   75 29.87 29.85      
Apr 22 19:54 N 5 10 Clear CLR 80 42     26%   79 29.86 29.84      
Apr 22 18:54 NW 10 10 Clear CLR 87 39     18%   84 29.84 29.83      
Apr 22 17:54 WNW 10 10 Clear CLR 90 40     17%   86 29.84 29.83      
Apr 22 16:54 6 10 Clear CLR 90 37     16%   86 29.85 29.83      
Apr 22 15:54 NW 8 10 Clear CLR 90 38     16%   86 29.87 29.85      
Apr 22 14:54 5 10 Clear CLR 88 44     22%   85 29.89 29.87      
Apr 22 13:54 WNW 5 10 Clear CLR 87 45     23%   84 29.91 29.89      
Apr 22 12:54 6 10 Clear CLR 84 46     27%   82 29.93 29.91      
Apr 22 11:54 WNW 3 10 Clear CLR 82 47     29%   80 29.95 29.93      
Apr 22 10:54 SW 5 10 Clear CLR 80 47     31%   79 29.97 29.95      
Apr 22 09:54 Calm 10 Clear CLR 76 45     33%   75 29.98 29.96      
Apr 22 08:54 SE 6 10 Clear CLR 73 44     35%   72 29.99 29.98      
Apr 22 07:54 ESE 3 10 Clear CLR 65 46     50%     29.99 29.98      
Apr 22 06:54 SSE 3 10 Clear CLR 59 45     60%     29.98 29.96      
Apr 22 05:54 ESE 3 10 Clear CLR 59 45     60%     29.98 29.96      
Apr 22 04:54 ESE 3 10 Clear CLR 63 44     50%     29.98 29.96      
Apr 22 03:54 Calm 10 Clear CLR 62 45     53%     29.99 29.97      
Apr 22 02:54 Calm 10 Clear CLR 64 45     50%     30 29.98      
Apr 22 00:54 ENE 3 10 Clear CLR 69 45     42%     30.02 30.01      
Apr 21 23:54 SE 5 10 Clear CLR 69 45     42%     30.02 30.01      
Apr 21 22:54 Calm 10 Clear CLR 71 45     39%   70 30.02 30.01      
Apr 21 21:54 Calm 10 Clear CLR 73 46     38%   72 30.02 30      
Apr 21 20:54 NNE 3 10 Clear CLR 72 44     37%   71 30.01 29.99      
Apr 21 19:54 NW 5 10 Clear CLR 78 43     29%   77 29.99 29.98      
Apr 21 18:54 WNW 8 10 Clear CLR 82 41     23%   80 29.98 29.97      
Apr 21 17:54 WNW 10 10 Clear CLR 84 41     22%   81 29.98 29.96      
Apr 21 16:54 WNW 9 10 Clear CLR 84 42     23%   81 29.99 29.97      
Apr 21 15:54 WNW 13 10 Clear CLR 84 43     24%   81 30 29.98      
Apr 21 14:54 NW 13 10 Clear CLR 84 43     24%   81 30.03 30.01      
Apr 21 13:54 WNW 10 10 Clear CLR 82 44     26%   80 30.05 30.03      
Apr 21 12:54 NNW 9 10 Clear CLR 80 42     26%   79 30.07 30.05      
Apr 21 11:54 WSW 7 10 Clear CLR 77 40     26%   76 30.09 30.08      
Apr 21 10:54 WNW 6 10 Clear CLR 74 40     29%   72 30.11 30.09      
Apr 21 09:54 SSE 6 10 Clear CLR 71 38     30%   69 30.11 30.1      
Apr 21 08:54 SE 9 10 Clear CLR 68 40     36%     30.12 30.1      
Apr 21 07:54 SE 5 10 Clear CLR 62 40     44%     30.12 30.1      
Apr 21 06:54 Calm 10 Clear CLR 54 39     57%     30.11 30.1      
Apr 21 05:54 Calm 10 Clear CLR 53 39     59%     30.11 30.09      
Apr 21 04:54 Calm 10 Clear CLR 55 40     57%     30.1 30.08      
Apr 21 03:54 Calm 10 Clear CLR 56 40     55%     30.1 30.09      
Apr 21 02:54 Calm 10 Clear CLR 59 39     47%     30.11 30.09      
Apr 21 01:54 E 7 10 Clear CLR 62 40     44%     30.13 30.12      
Apr 21 00:54 E 6 10 Clear CLR 64 40     41%     30.15 30.13      
Apr 20 23:54 E 5 10 Clear CLR 65 40     40%     30.15 30.14      
Apr 20 22:54 ESE 3 10 Clear CLR 66 39     37%     30.14 30.13      
Apr 20 21:54 Calm 10 Clear CLR 64 39     40%     30.13 30.12      
Apr 20 20:54 Calm 10 Clear CLR 70 39     32%     30.11 30.1      
Apr 20 19:54 NNW 3 10 Clear CLR 71 39     31%   69 30.09 30.08      
Apr 20 18:54 N 5 10 Clear CLR 76 38     25%   74 30.08 30.07      
Apr 20 17:54 NW 6 10 Clear CLR 76 38     25%   74 30.08 30.07      
Apr 20 16:54 6 10 Clear CLR 76 39     26%   74 30.08 30.07      
Apr 20 15:54 NW 9 10 Clear CLR 77 39     26%   76 30.09 30.08      
Apr 20 14:54 WNW 8 10 Clear CLR 75 39     27%   74 30.11 30.1      
Apr 20 13:54 6 10 Clear CLR 73 40     30%   71 30.13 30.11      
Apr 20 12:54 WSW 7 10 Clear CLR 72 39     30%   70 30.14 30.12      
Apr 20 11:54 W 8 10 Clear CLR 70 39     32%     30.14 30.13      
Apr 20 10:54 6 10 Clear CLR 69 38     32%     30.15 30.14      
Apr 20 09:54 WNW 6 10 Clear CLR 66 37     34%     30.16 30.15      
Apr 20 08:54 Calm 10 Clear CLR 64 36     35%     30.16 30.15      
Apr 20 07:54 E 5 10 Clear CLR 60 37     42%     30.16 30.15      
Apr 20 06:54 E 8 10 Clear CLR 55 37     51%     30.15 30.14      
Apr 20 05:54 E 7 10 Clear CLR 54 37     53%     30.14 30.13      
Apr 20 04:54 E 6 10 Clear CLR 54 37     53%     30.13 30.12      
Apr 20 03:54 E 5 10 Clear CLR 55 38     52%     30.13 30.12      
Apr 20 02:54 ESE 3 10 Cloudy OVC070 56 37     49%     30.13 30.12      
Apr 20 01:54 NNE 5 10 Cloudy OVC070 58 37     46%     30.11 30.11      
Apr 20 00:54 NNW 6 10 Cloudy OVC070 57 36     45%     30.11 30.1      
Apr 19 23:54 NNE 3 10 Mostly Clear FEW075 52 35     52%     30.09 30.09      
Apr 19 22:54 Calm 10 Clear CLR 55 35     47%     30.08 30.07      
Jun 11 23:54 N 18 10 Mostly Cloudy BKN080 61 42     50%     29.98 29.97      
Jun 11 09:54 NNW 13 10 Mostly Clear FEW039 64 43     46%     29.93 29.92      
Jun 11 07:54 NNW 15 10 Clear CLR 61 44     54%     29.91 29.9      
Jun 10 21:54 N 6 10 Clear CLR 71 46     41%   70 29.84 29.82      
Jun 10 18:54 NW 10 10 Clear CLR 77 46     33%   76 29.82 29.8      
Jun 10 15:54 W 10 10 Clear CLR 77 47     35%   76 29.85 29.84      
Jun 10 08:54 NW 8 10 Cloudy OVC048 63 43     48%     29.96 29.94      
Jun 08 21:54 NW 14 10 Clear   76 48     37%   75 29.92 29.9      
Jun 08 14:01 W 10 9 Mostly Clear FEW001 87 37     17%   84 29.94        
Jun 08 11:54 W 7 10 Clear CLR 81 46     29%   80 29.97 29.95      
Jun 08 06:54 ENE 5 10 Clear CLR 69 46     44%     29.97 29.95      
Jun 07 08:54 3 10 Clear CLR 78 45     31%   77 29.87 29.85